CW7410 Weather Reports


time (UTC)temp
F
wind
direction
speed
knots
gust
knots
rain 1hr
in
rain 24hr
in
rain mn
in
humidity
%
barometer
mb
20260507073540 44 360 3.5 5.2 0.00 0.00 0.00 62 1018.6
20260507073050 45 360 1.7 3.5 0.00 0.00 0.00 61 1018.7
20260507072538 45 360 1.7 3.5 0.00 0.00 0.00 61 1018.8
20260507072038 45 360 1.7 3.5 0.00 0.00 0.00 60 1018.9
20260507071550 45 360 1.7 3.5 0.00 0.00 0.00 60 1018.9
20260507071040 45 360 1.7 2.6 0.00 0.00 0.00 59 1018.8
20260507070538 45 360 1.7 2.6 0.00 0.00 0.00 59 1018.8
20260507070051 45 360 1.7 2.6 0.00 0.00 0.00 58 1018.8
20260507065542 45 360 0.9 2.6 0.00 0.00 0.00 57 1019.1
20260507065038 46 360 0.9 3.5 0.00 0.00 0.00 57 1019.0
20260507064551 46 0 0.0 3.5 0.00 0.00 0.00 56 1019.0
20260507064041 46 360 1.7 3.5 0.00 0.00 0.00 56 1018.9
20260507063538 46 0 0.9 3.5 0.00 0.00 0.00 56 1018.9
20260507063053 47 360 1.7 3.5 0.00 0.00 0.00 56 1018.9
20260507062539 47 360 0.9 2.6 0.00 0.00 0.00 55 1018.9
20260507062040 47 0 0.0 1.7 0.00 0.00 0.00 55 1018.9
20260507061548 47 0 0.0 1.7 0.00 0.00 0.00 55 1018.9
20260507061041 47 0 0.0 1.7 0.00 0.00 0.00 55 1018.9
20260507060541 48 0 0.0 1.7 0.00 0.00 0.00 55 1019.0
20260507060047 48 360 0.0 1.7 0.00 0.00 0.00 55 1018.9
20260507055541 48 0 0.0 2.6 0.00 0.00 0.00 55 1018.9
20260507055045 48 0 0.0 2.6 0.00 0.00 0.00 55 1018.9
20260507054611 48 360 0.9 3.5 0.00 0.00 0.00 54 1018.9
20260507054039 49 78 0.9 3.5 0.00 0.00 0.00 54 1019.0
20260507053540 49 86 0.9 3.5 0.00 0.00 0.00 53 1019.0
20260507053053 49 96 2.6 3.5 0.00 0.00 0.00 53 1019.0
20260507052539 49 82 1.7 3.5 0.00 0.00 0.00 52 1019.0
20260507052041 49 72 1.7 3.5 0.00 0.00 0.00 51 1018.9
20260507051552 49 79 1.7 4.3 0.00 0.00 0.00 51 1019.0
20260507051038 49 360 1.7 5.2 0.00 0.00 0.00 50 1018.9
20260507050541 49 82 2.6 5.2 0.00 0.00 0.00 50 1018.9
20260507050057 49 76 2.6 5.2 0.00 0.00 0.00 50 1018.9
20260507045543 49 63 1.7 4.3 0.00 0.00 0.00 50 1019.1
20260507045042 49 360 1.7 4.3 0.00 0.00 0.00 51 1019.1
20260507044556 49 360 2.6 4.3 0.00 0.00 0.00 52 1019.0
20260507044040 50 360 2.6 4.3 0.00 0.00 0.00 52 1019.0
20260507043541 50 86 1.7 3.5 0.00 0.00 0.00 51 1018.9
20260507043049 50 360 0.9 3.5 0.00 0.00 0.00 51 1019.0
20260507042540 50 360 0.9 3.5 0.00 0.00 0.00 50 1019.2
20260507042039 50 70 1.7 3.5 0.00 0.00 0.00 50 1019.1
20260507041549 50 82 0.9 3.5 0.00 0.00 0.00 49 1019.1
20260507041037 50 360 1.7 4.3 0.00 0.00 0.00 49 1018.9
20260507040541 51 360 1.7 4.3 0.00 0.00 0.00 48 1018.8
20260507040054 51 360 1.7 4.3 0.00 0.00 0.00 48 1018.8
20260507035538 51 360 2.6 5.2 0.00 0.00 0.00 47 1018.9
20260507035038 51 360 2.6 7.0 0.00 0.00 0.00 46 1018.7
20260507034557 52 360 4.3 7.0 0.00 0.00 0.00 46 1018.5
20260507034038 52 360 4.3 7.0 0.00 0.00 0.00 45 1018.7
20260507033539 53 360 3.5 5.2 0.00 0.00 0.00 44 1018.6
20260507033056 53 360 3.5 4.3 0.00 0.00 0.00 42 1018.7
20260507032538 53 360 2.6 4.3 0.00 0.00 0.00 42 1018.7
20260507032037 54 360 2.6 4.3 0.00 0.00 0.00 42 1018.7
20260507031604 54 360 2.6 4.3 0.00 0.00 0.00 43 1018.7
20260507031038 55 360 0.9 4.3 0.00 0.00 0.00 43 1018.6
20260507030541 55 360 2.6 4.3 0.00 0.00 0.00 41 1018.5
20260507030054 56 360 2.6 4.3 0.00 0.00 0.00 41 1018.6
20260507025538 56 360 2.6 4.3 0.00 0.00 0.00 40 1018.5
20260507025038 57 360 0.9 7.0 0.00 0.00 0.00 39 1018.4
20260507024547 57 0 0.9 7.8 0.00 0.00 0.00 38 1018.3
20260507024038 58 360 2.6 7.8 0.00 0.00 0.00 37 1018.1
20260507023538 59 360 3.5 7.8 0.00 0.00 0.00 36 1018.1
20260507023103 59 360 2.6 5.2 0.00 0.00 0.00 37 1018.1
20260507022539 60 360 1.7 5.2 0.00 0.00 0.00 36 1018.2
20260507022038 60 360 0.9 4.3 0.00 0.00 0.00 36 1018.2
20260507021557 61 0 1.7 4.3 0.00 0.00 0.00 34 1018.2
20260507021037 61 179 0.9 4.3 0.00 0.00 0.00 34 1018.4
20260507020542 62 360 0.9 4.3 0.00 0.00 0.00 34 1018.3
20260507020056 62 164 2.6 4.3 0.00 0.00 0.00 33 1018.3
20260507015537 63 173 0.9 4.3 0.00 0.00 0.00 34 1018.3
20260507015038 64 146 0.9 5.2 0.00 0.00 0.00 35 1018.4
20260507014600 64 360 1.7 6.1 0.00 0.00 0.00 32 1018.3
20260507014041 64 173 2.6 6.1 0.00 0.00 0.00 32 1018.3
20260507013537 64 159 1.7 5.2 0.00 0.00 0.00 31 1018.4
20260507013050 65 134 0.0 5.2 0.00 0.00 0.00 30 1018.4
20260507012539 65 180 2.6 5.2 0.00 0.00 0.00 28 1018.5
20260507012038 65 173 0.9 4.3 0.00 0.00 0.00 27 1018.5
20260507011549 66 202 1.7 5.2 0.00 0.00 0.00 27 1018.5
20260507011038 66 264 0.0 7.0 0.00 0.00 0.00 28 1018.5
20260507010539 66 194 2.6 7.0 0.00 0.00 0.00 27 1018.5
20260507010050 66 213 4.3 7.0 0.00 0.00 0.00 27 1018.6
20260507005538 66 0 0.9 4.3 0.00 0.00 0.00 28 1018.6
20260507005038 66 161 1.7 5.2 0.00 0.00 0.00 28 1018.7
20260507004554 66 0 0.9 5.2 0.00 0.00 0.00 28 1018.6
20260507004038 66 190 1.7 7.0 0.00 0.00 0.00 27 1018.7
20260507003541 66 153 2.6 7.0 0.00 0.00 0.00 28 1018.6
20260507003053 66 200 1.7 6.1 0.00 0.00 0.00 28 1018.6
20260507002538 66 220 2.6 7.0 0.00 0.00 0.00 28 1018.6
20260507002038 65 257 0.9 7.0 0.00 0.00 0.00 27 1018.6
20260507001555 65 234 4.3 8.7 0.00 0.00 0.00 29 1018.6
20260507001037 65 214 4.3 8.7 0.00 0.00 0.00 28 1018.6
20260507000541 65 195 3.5 7.8 0.00 0.00 0.00 29 1018.6
20260507000052 65 222 2.6 11.3 0.00 0.00 0.00 28 1018.6
20260506235537 65 238 3.5 11.3 0.00 0.00 0.00 28 1018.6
20260506235038 65 213 7.0 11.3 0.00 0.00 0.00 29 1018.6
20260506234552 65 240 3.5 10.4 0.00 0.00 0.00 29 1018.6
20260506234038 65 235 4.3 10.4 0.00 0.00 0.00 30 1018.5
20260506233539 64 272 2.6 8.7 0.00 0.00 0.00 29 1018.6
20260506233108 64 164 1.7 8.7 0.00 0.00 0.00 30 1018.5
20260506232540 64 296 3.5 12.2 0.00 0.00 0.00 29 1018.5
20260506232040 64 336 6.1 12.2 0.00 0.00 0.00 30 1018.6
20260506231550 65 261 6.1 11.3 0.00 0.00 0.00 29 1018.5
20260506231038 64 189 6.1 11.3 0.00 0.00 0.00 29 1018.5
20260506230540 64 244 6.1 12.2 0.00 0.00 0.00 29 1018.6
20260506230056 64 272 4.3 12.2 0.00 0.00 0.00 28 1018.5
20260506225539 64 279 6.1 12.2 0.00 0.00 0.00 28 1018.7
20260506225040 64 277 7.0 13.9 0.00 0.00 0.00 29 1018.5
20260506224548 64 290 5.2 13.9 0.00 0.00 0.00 30 1018.7
20260506224037 64 360 7.8 13.9 0.00 0.00 0.00 29 1018.7
20260506223540 64 360 3.5 13.0 0.00 0.00 0.00 28 1018.8
20260506223047 64 360 7.0 13.0 0.00 0.00 0.00 30 1018.7
20260506222540 64 322 4.3 12.2 0.00 0.00 0.00 30 1018.7
20260506222041 63 311 3.5 12.2 0.00 0.00 0.00 30 1018.9
20260506221548 63 329 6.1 13.9 0.00 0.00 0.00 29 1018.9
20260506221038 63 309 4.3 13.9 0.00 0.00 0.00 31 1018.9
20260506220539 63 261 5.2 16.5 0.00 0.00 0.00 31 1018.9
20260506220054 63 295 5.2 16.5 0.00 0.00 0.00 30 1018.9
20260506215542 63 277 12.2 16.5 0.00 0.00 0.00 30 1019.1
20260506215038 63 243 7.0 16.5 0.00 0.00 0.00 31 1019.2
20260506214550 63 253 7.0 16.5 0.00 0.00 0.00 31 1019.2
20260506214038 63 231 6.1 17.4 0.00 0.00 0.00 31 1019.2
20260506213537 63 250 8.7 18.2 0.00 0.00 0.00 31 1019.3
20260506213111 63 250 9.6 18.2 0.00 0.00 0.00 31 1019.2
20260506212540 63 249 8.7 18.2 0.00 0.00 0.00 31 1019.3
20260506212038 64 269 9.6 18.2 0.00 0.00 0.00 30 1019.3
20260506211549 64 273 8.7 16.5 0.00 0.00 0.00 31 1019.2
20260506211038 64 270 7.8 16.5 0.00 0.00 0.00 31 1019.2
20260506210538 63 307 7.8 17.4 0.00 0.00 0.00 29 1019.2
20260506210056 63 328 9.6 18.2 0.00 0.00 0.00 28 1019.2
20260506205543 64 319 10.4 18.2 0.00 0.00 0.00 28 1019.2
20260506205039 64 360 9.6 13.9 0.00 0.00 0.00 29 1019.1
20260506204551 63 299 8.7 13.9 0.00 0.00 0.00 30 1019.0
20260506204041 63 360 7.8 13.9 0.00 0.00 0.00 32 1019.1
20260506203538 62 293 2.6 18.2 0.00 0.00 0.00 32 1019.0
20260506203050 62 258 3.5 18.2 0.00 0.00 0.00 29 1019.1
20260506202541 62 306 9.6 18.2 0.00 0.00 0.00 30 1019.1
20260506202040 62 320 7.8 19.1 0.00 0.00 0.00 31 1019.1
20260506201546 62 302 10.4 19.1 0.00 0.00 0.00 29 1019.0
20260506201039 62 355 9.6 20.9 0.00 0.00 0.00 29 1019.0
20260506200539 62 310 10.4 20.9 0.00 0.00 0.00 30 1019.2
20260506200052 62 327 10.4 20.9 0.00 0.00 0.00 30 1019.1
20260506195540 62 317 9.6 20.0 0.00 0.00 0.00 30 1019.2
20260506195038 62 298 13.0 20.0 0.00 0.00 0.00 30 1019.2
20260506194604 61 328 12.2 19.1 0.00 0.00 0.00 30 1019.0
20260506194038 61 333 8.7 14.8 0.00 0.00 0.00 32 1019.0
20260506193538 61 5 5.2 14.8 0.00 0.00 0.00 31 1018.9
20260506193050 60 15 7.8 14.8 0.00 0.00 0.00 32 1019.0
20260506192538 60 339 5.2 14.8 0.00 0.00 0.00 33 1019.0
20260506192038 60 5 9.6 14.8 0.00 0.00 0.00 34 1019.2
20260506191551 60 10 7.8 14.8 0.00 0.00 0.00 32 1019.1
20260506191040 60 345 7.8 13.0 0.00 0.00 0.00 29 1019.2
20260506190540 59 317 6.1 9.6 0.00 0.00 0.00 31 1019.1
20260506190051 59 280 1.7 11.3 0.00 0.00 0.00 30 1019.1
20260506185539 59 321 3.5 11.3 0.00 0.00 0.00 30 1019.2
20260506185038 58 288 5.2 11.3 0.00 0.00 0.00 32 1019.2
20260506184553 58 304 2.6 11.3 0.00 0.00 0.00 31 1019.3
20260506184038 58 345 5.2 11.3 0.00 0.00 0.00 32 1019.4
20260506183539 58 355 3.5 11.3 0.00 0.00 0.00 34 1019.4
20260506183053 57 347 5.2 11.3 0.00 0.00 0.00 34 1019.3
20260506182537 57 22 7.8 11.3 0.00 0.00 0.00 34 1019.4
20260506182041 57 28 2.6 11.3 0.00 0.00 0.00 34 1019.4
20260506181552 57 283 7.0 13.0 0.00 0.00 0.00 33 1019.4
20260506181038 57 302 6.1 13.0 0.00 0.00 0.00 32 1019.5
20260506180540 56 303 6.1 12.2 0.00 0.00 0.00 33 1019.5
20260506180059 56 360 5.2 13.9 0.00 0.00 0.00 35 1019.4
20260506175540 56 22 7.0 13.9 0.00 0.00 0.00 34 1019.5
20260506175039 56 315 8.7 13.9 0.00 0.00 0.00 38 1019.5
20260506174550 56 11 5.2 12.2 0.00 0.00 0.00 34 1019.5
20260506174042 56 351 7.8 12.2 0.00 0.00 0.00 35 1019.5
20260506173540 55 329 7.8 12.2 0.00 0.00 0.00 35 1019.4
20260506173056 55 360 6.1 10.4 0.00 0.00 0.00 33 1019.5
20260506172539 55 342 5.2 13.0 0.00 0.00 0.00 34 1019.4
20260506172039 55 25 5.2 13.0 0.00 0.00 0.00 35 1019.4
20260506171556 54 360 7.0 13.9 0.00 0.00 0.00 35 1019.4
20260506171038 54 360 4.3 13.9 0.00 0.00 0.00 37 1019.2
20260506170538 54 360 7.0 16.5 0.00 0.00 0.00 37 1019.2
20260506170105 54 11 6.1 16.5 0.00 0.00 0.00 36 1019.1
20260506165539 54 360 9.6 16.5 0.00 0.00 0.00 35 1019.1
20260506165039 53 303 7.0 11.3 0.00 0.00 0.00 39 1019.0
20260506164548 53 307 4.3 13.0 0.00 0.00 0.00 40 1019.0
20260506164040 52 13 6.1 13.0 0.00 0.00 0.00 40 1019.1
20260506163542 52 303 7.0 13.0 0.00 0.00 0.00 40 1019.1
20260506163110 52 42 3.5 13.0 0.00 0.00 0.00 41 1019.0
20260506162542 52 16 7.8 13.0 0.00 0.00 0.00 42 1019.1
20260506162044 51 15 7.0 12.2 0.00 0.00 0.00 42 1019.0
20260506161551 51 310 7.8 12.2 0.00 0.00 0.00 43 1018.9
20260506161042 51 59 6.1 12.2 0.00 0.00 0.00 43 1018.9
20260506160539 51 13 6.1 12.2 0.00 0.00 0.00 41 1018.9
20260506160055 51 19 7.8 13.0 0.00 0.00 0.00 42 1018.8
20260506155541 51 27 7.8 13.0 0.00 0.00 0.00 45 1018.9
20260506155039 50 338 7.0 13.0 0.00 0.00 0.00 43 1018.8
20260506154610 50 355 4.3 10.4 0.00 0.00 0.00 47 1018.7
20260506154039 50 28 7.0 13.0 0.00 0.00 0.00 48 1018.7
20260506153539 50 37 7.0 13.0 0.00 0.00 0.00 47 1018.6
20260506153059 50 19 8.7 13.0 0.00 0.00 0.00 49 1018.6
20260506152537 49 28 6.1 13.0 0.00 0.00 0.00 50 1018.6
20260506152038 49 360 7.8 13.0 0.00 0.00 0.00 49 1018.4
20260506151558 49 360 10.4 13.0 0.00 0.00 0.00 50 1018.4
20260506151039 49 360 7.0 11.3 0.00 0.00 0.00 48 1018.3
20260506150539 49 360 5.2 9.6 0.00 0.00 0.00 49 1018.3
20260506150051 49 360 5.2 9.6 0.00 0.00 0.00 49 1018.3
20260506145540 49 360 7.0 9.6 0.00 0.00 0.00 50 1018.3
20260506145038 49 360 5.2 9.6 0.00 0.00 0.00 51 1018.1
20260506144552 49 360 5.2 9.6 0.00 0.00 0.00 52 1018.1
20260506144039 48 360 3.5 7.8 0.00 0.00 0.00 53 1018.0
20260506143541 48 360 3.5 7.8 0.00 0.00 0.00 53 1017.9
20260506143101 48 360 2.6 7.0 0.00 0.00 0.00 52 1017.9
20260506142541 48 360 2.6 7.8 0.00 0.00 0.00 53 1017.9
20260506142039 48 360 3.5 7.8 0.00 0.00 0.00 54 1017.8
20260506141553 48 360 4.3 7.0 0.00 0.00 0.00 54 1017.7
20260506141041 48 360 1.7 4.3 0.00 0.00 0.00 53 1017.7
20260506140540 47 32 1.7 4.3 0.00 0.00 0.00 54 1017.8
20260506140058 46 55 1.7 3.5 0.00 0.00 0.00 56 1017.7
20260506135540 46 0 0.0 2.6 0.00 0.00 0.00 58 1017.6
20260506135038 45 0 0.0 2.6 0.00 0.00 0.00 61 1017.5
20260506134556 44 0 0.0 0.0 0.00 0.00 0.00 62 1017.4
20260506134039 44 0 0.0 0.9 0.00 0.00 0.00 63 1017.3
20260506133540 43 0 0.0 3.5 0.00 0.00 0.00 62 1017.3
20260506133050 42 0 0.0 3.5 0.00 0.00 0.00 62 1017.0
20260506132539 42 0 0.9 3.5 0.00 0.00 0.00 62 1017.1
20260506132039 41 360 0.9 3.5 0.00 0.00 0.00 62 1017.0
20260506131547 41 287 2.6 3.5 0.00 0.00 0.00 62 1017.0
20260506131039 41 286 0.9 4.3 0.00 0.00 0.00 62 1016.9
20260506130539 41 0 0.9 4.3 0.00 0.00 0.00 62 1016.7
20260506130048 41 308 2.6 4.3 0.00 0.00 0.00 61 1016.7
20260506125542 41 279 1.7 3.5 0.00 0.00 0.00 60 1016.6
20260506125042 41 286 0.0 1.7 0.00 0.00 0.00 60 1016.5
20260506124552 41 0 0.0 1.7 0.00 0.00 0.00 60 1016.4
20260506124039 41 0 0.0 2.6 0.00 0.00 0.00 59 1016.2
20260506123539 41 0 0.0 3.5 0.00 0.00 0.00 59 1016.0
20260506123052 41 297 0.9 3.5 0.00 0.00 0.00 59 1016.0
20260506122540 41 0 1.7 3.5 0.00 0.00 0.00 58 1016.0
20260506122039 41 288 1.7 6.1 0.00 0.00 0.00 58 1016.0
20260506121551 42 336 1.7 6.1 0.00 0.00 0.00 58 1015.8
20260506121039 42 9 2.6 7.0 0.00 0.00 0.00 58 1015.6
20260506120539 42 9 2.6 8.7 0.00 0.00 0.00 58 1015.7
20260506120100 42 16 3.5 8.7 0.00 0.00 0.00 58 1015.5
20260506115539 42 56 4.3 8.7 0.00 0.00 0.00 58 1015.3
20260506115039 42 37 3.5 7.0 0.00 0.00 0.00 58 1015.4
20260506114604 43 14 4.3 7.8 0.00 0.00 0.00 57 1015.3
20260506114037 43 27 3.5 7.8 0.00 0.00 0.00 57 1015.4
20260506113539 43 5 4.3 7.8 0.00 0.00 0.00 56 1015.4
20260506113055 44 17 5.2 8.7 0.00 0.00 0.00 56 1015.3
20260506112537 44 39 3.5 8.7 0.00 0.00 0.00 57 1015.3
20260506112038 44 49 3.5 8.7 0.00 0.00 0.00 57 1015.2
20260506111548 45 24 3.5 7.8 0.00 0.00 0.00 57 1015.1
20260506111037 45 352 1.7 7.8 0.00 0.00 0.00 57 1015.2
20260506110538 45 352 3.5 7.8 0.00 0.00 0.00 57 1015.1
20260506110059 45 26 1.7 8.7 0.00 0.00 0.00 57 1014.9
20260506105539 45 53 5.2 10.4 0.00 0.00 0.00 58 1014.9
20260506105038 45 46 4.3 10.4 0.00 0.00 0.00 59 1014.9
20260506104546 45 150 4.3 10.4 0.00 0.00 0.00 60 1014.7
20260506104038 45 109 4.3 9.6 0.00 0.00 0.00 60 1014.9
20260506103536 44 43 3.5 9.6 0.00 0.00 0.00 60 1014.7
20260506103047 44 104 2.6 9.6 0.00 0.00 0.00 61 1014.5
20260506102539 44 70 4.3 10.4 0.00 0.00 0.00 61 1014.6
20260506102038 44 79 3.5 16.5 0.00 0.00 0.00 61 1014.4
20260506101601 44 85 5.2 16.5 0.00 0.00 0.00 61 1014.3
20260506101042 44 100 9.6 16.5 0.00 0.00 0.00 61 1014.1
20260506100539 44 61 5.2 19.1 0.00 0.00 0.00 63 1014.2
20260506100051 44 62 12.2 20.9 0.00 0.00 0.00 63 1014.0
20260506095543 44 46 13.0 25.2 0.00 0.00 0.00 63 1013.9
20260506095039 44 54 11.3 25.2 0.00 0.00 0.00 63 1014.0
20260506094606 44 40 15.6 23.5 0.00 0.00 0.00 62 1013.8
20260506094038 44 47 13.0 20.9 0.00 0.00 0.00 62 1013.7
20260506093539 44 47 11.3 19.1 0.00 0.00 0.00 62 1013.6
20260506093054 44 46 13.9 20.9 0.00 0.00 0.00 62 1013.6
20260506092539 44 35 13.0 22.6 0.00 0.00 0.00 61 1013.4
20260506092038 45 41 13.9 25.2 0.00 0.00 0.00 60 1013.3
20260506091549 45 29 15.6 25.2 0.00 0.00 0.00 59 1013.2
20260506091039 45 40 13.9 25.2 0.00 0.00 0.00 59 1013.0
20260506090538 46 46 17.4 25.2 0.00 0.00 0.00 58 1012.8
20260506090051 46 37 12.2 23.5 0.00 0.00 0.00 59 1012.9
20260506085538 46 67 12.2 23.5 0.00 0.00 0.00 59 1012.7
20260506085039 46 42 12.2 23.5 0.00 0.00 0.00 59 1012.7
20260506084549 46 52 13.0 23.5 0.00 0.00 0.00 61 1012.9
20260506084041 46 22 11.3 19.1 0.00 0.00 0.00 62 1012.9
20260506083539 46 49 14.8 19.1 0.00 0.00 0.00 64 1012.7
20260506083048 46 49 9.6 19.1 0.00 0.00 0.00 66 1012.5
20260506082540 46 41 13.0 21.7 0.00 0.00 0.00 67 1012.2
20260506082038 46 42 12.2 21.7 0.00 0.00 0.00 69 1012.0
20260506081547 46 41 7.8 19.1 0.00 0.00 0.00 71 1012.1
20260506081039 46 61 8.7 19.1 0.00 0.00 0.00 72 1012.0
20260506080539 46 57 10.4 20.0 0.00 0.00 0.00 72 1011.8